Location: Haram ta Haram Freeway
(35.0583°N, 51.4202°E)
Time: 17:10:35
(UTC+03:30)

IRIDIUM 33 DEB - Pass Details

Date: 02 December 2021
Orbit: 663 x 816 km, 86.4° (Epoch: 18 January)

Event Time Altitude Azimuth Distance (km) Brightness Sun altitude
Rises 18:26:21 0° 164° (SSE) 3,341 ? -18.8°
Reaches altitude 10° 18:28:50 10° 158° (SSE) 2,412 ? -19.3°
Maximum altitude 18:33:58 44° 87° (E) 1,111 ? -20.3°
Enters shadow 18:35:12 38° 52° (NE) 1,223 ? -20.6°
